TimeEDT,TemperatureF,Dew PointF,Humidity,Sea Level PressureIn,VisibilityMPH,Wind Direction,Wind SpeedMPH,Gust SpeedMPH,PrecipitationIn,Events,Conditions,WindDirDegrees,DateUTC
12:15 AM,66.2,66.2,100,29.86,10.0,NW,3.5,-,N/A,,Unknown,320,2013-09-03 04:15:00
12:35 AM,66.2,66.2,100,29.87,10.0,NW,3.5,-,N/A,,Unknown,310,2013-09-03 04:35:00
12:55 AM,64.4,64.4,100,29.87,10.0,Calm,Calm,-,N/A,,Unknown,0,2013-09-03 04:55:00
1:15 AM,64.4,64.4,100,29.86,10.0,Calm,Calm,-,N/A,,Unknown,0,2013-09-03 05:15:00
1:35 AM,64.4,64.4,100,29.86,10.0,Calm,Calm,-,N/A,,Unknown,0,2013-09-03 05:35:00
1:55 AM,62.6,62.6,100,29.87,7.0,Calm,Calm,-,N/A,,Unknown,0,2013-09-03 05:55:00
2:15 AM,62.6,62.6,100,29.87,10.0,Calm,Calm,-,N/A,,Unknown,0,2013-09-03 06:15:00
2:35 AM,60.8,60.8,100,29.87,7.0,Calm,Calm,-,N/A,,Unknown,0,2013-09-03 06:35:00
2:55 AM,60.8,60.8,100,29.87,7.0,Calm,Calm,-,N/A,,Unknown,0,2013-09-03 06:55:00
3:15 AM,60.8,60.8,100,29.87,10.0,Calm,Calm,-,N/A,,Unknown,0,2013-09-03 07:15:00
3:35 AM,60.8,60.8,100,29.86,10.0,Calm,Calm,-,N/A,,Unknown,0,2013-09-03 07:35:00
3:55 AM,59.0,59.0,100,29.87,5.0,Calm,Calm,-,N/A,,Unknown,0,2013-09-03 07:55:00
4:15 AM,59.0,59.0,100,29.87,7.0,Calm,Calm,-,N/A,,Unknown,0,2013-09-03 08:15:00
4:35 AM,57.2,57.2,100,29.87,10.0,Calm,Calm,-,N/A,,Unknown,0,2013-09-03 08:35:00
4:55 AM,57.2,57.2,100,29.88,4.0,Calm,Calm,-,N/A,,Unknown,0,2013-09-03 08:55:00
5:15 AM,59.0,59.0,100,29.88,7.0,Calm,Calm,-,N/A,,Unknown,0,2013-09-03 09:15:00
5:35 AM,59.0,59.0,100,29.89,7.0,Calm,Calm,-,N/A,,Unknown,0,2013-09-03 09:35:00
5:55 AM,60.8,60.8,100,29.90,7.0,Calm,Calm,-,N/A,,Unknown,0,2013-09-03 09:55:00
6:15 AM,60.8,60.8,100,29.90,5.0,Calm,Calm,-,N/A,,Unknown,0,2013-09-03 10:15:00
6:35 AM,60.8,60.8,100,29.91,7.0,Calm,Calm,-,N/A,,Unknown,0,2013-09-03 10:35:00
6:55 AM,60.8,60.8,100,29.91,5.0,Calm,Calm,-,N/A,,Unknown,0,2013-09-03 10:55:00
7:15 AM,60.8,60.8,100,29.91,5.0,Calm,Calm,-,N/A,,Unknown,0,2013-09-03 11:15:00
7:35 AM,60.8,60.8,100,29.92,7.0,Calm,Calm,-,N/A,,Unknown,0,2013-09-03 11:35:00
7:55 AM,60.8,60.8,100,29.93,10.0,Calm,Calm,-,N/A,,Unknown,0,2013-09-03 11:55:00
8:15 AM,60.8,60.8,100,29.94,10.0,NNW,3.5,-,N/A,,Unknown,340,2013-09-03 12:15:00
8:35 AM,62.6,62.6,100,29.94,10.0,NNW,5.8,-,N/A,,Unknown,340,2013-09-03 12:35:00
8:55 AM,60.8,60.8,100,29.94,10.0,NNW,5.8,-,N/A,,Unknown,330,2013-09-03 12:55:00
9:15 AM,62.6,62.6,100,29.95,10.0,NNW,5.8,-,N/A,,Unknown,340,2013-09-03 13:15:00
9:35 AM,62.6,62.6,100,29.95,10.0,NW,4.6,-,N/A,,Unknown,320,2013-09-03 13:35:00
9:55 AM,64.4,62.6,94,29.96,10.0,NNW,4.6,-,N/A,,Unknown,340,2013-09-03 13:55:00
10:15 AM,64.4,62.6,94,29.96,10.0,NW,4.6,-,N/A,,Unknown,310,2013-09-03 14:15:00
10:35 AM,64.4,62.6,94,29.96,10.0,WNW,6.9,-,N/A,,Unknown,290,2013-09-03 14:35:00
10:55 AM,66.2,60.8,83,29.97,10.0,NW,9.2,-,N/A,,Unknown,310,2013-09-03 14:55:00
11:15 AM,66.2,59.0,78,29.97,10.0,NW,6.9,-,N/A,,Unknown,320,2013-09-03 15:15:00
11:35 AM,66.2,57.2,73,29.97,10.0,West,15.0,19.6,N/A,,Unknown,280,2013-09-03 15:35:00
11:55 AM,64.4,59.0,83,29.97,10.0,WNW,5.8,-,N/A,,Unknown,290,2013-09-03 15:55:00
12:15 PM,68.0,57.2,68,29.97,10.0,NW,10.4,17.3,N/A,,Unknown,310,2013-09-03 16:15:00
12:35 PM,66.2,57.2,73,29.97,10.0,NW,10.4,-,N/A,,Unknown,310,2013-09-03 16:35:00
12:55 PM,66.2,55.4,68,29.97,10.0,NW,10.4,18.4,N/A,,Unknown,320,2013-09-03 16:55:00
1:15 PM,68.0,57.2,68,29.97,10.0,NW,9.2,16.1,N/A,,Unknown,320,2013-09-03 17:15:00
1:35 PM,66.2,57.2,73,29.98,10.0,NNW,11.5,16.1,N/A,,Unknown,330,2013-09-03 17:35:00
1:55 PM,66.2,57.2,73,29.98,10.0,NNW,11.5,17.3,N/A,,Unknown,330,2013-09-03 17:55:00
2:15 PM,66.2,57.2,73,29.98,10.0,NW,9.2,17.3,N/A,,Unknown,320,2013-09-03 18:15:00
2:35 PM,66.2,57.2,73,29.97,10.0,NNW,6.9,16.1,N/A,,Unknown,330,2013-09-03 18:35:00
2:55 PM,66.2,57.2,73,29.98,10.0,NNW,11.5,-,N/A,,Unknown,340,2013-09-03 18:55:00
3:15 PM,66.2,57.2,73,29.97,10.0,NNW,6.9,-,N/A,,Unknown,330,2013-09-03 19:15:00
3:35 PM,68.0,59.0,73,29.98,10.0,NNW,11.5,18.4,N/A,,Unknown,330,2013-09-03 19:35:00
3:55 PM,66.2,59.0,78,29.98,10.0,NNW,10.4,-,N/A,,Unknown,340,2013-09-03 19:55:00
4:15 PM,66.2,57.2,73,29.98,10.0,NW,8.1,-,N/A,,Unknown,320,2013-09-03 20:15:00
4:35 PM,64.4,59.0,83,29.99,10.0,NNW,6.9,-,N/A,,Unknown,330,2013-09-03 20:35:00
4:55 PM,66.2,59.0,78,29.98,10.0,NNW,6.9,-,N/A,,Unknown,340,2013-09-03 20:55:00
5:15 PM,64.4,59.0,83,29.99,10.0,NW,5.8,-,N/A,,Unknown,310,2013-09-03 21:15:00
5:35 PM,64.4,60.8,88,30.00,10.0,NNW,9.2,-,N/A,,Unknown,340,2013-09-03 21:35:00
5:55 PM,64.4,59.0,83,30.00,10.0,NW,10.4,16.1,N/A,,Unknown,310,2013-09-03 21:55:00
6:15 PM,62.6,60.8,94,30.00,10.0,NW,4.6,-,N/A,,Unknown,320,2013-09-03 22:15:00
6:35 PM,62.6,60.8,94,30.00,10.0,NW,5.8,-,N/A,,Unknown,320,2013-09-03 22:35:00
6:55 PM,62.6,60.8,94,30.00,10.0,NNW,6.9,-,N/A,,Unknown,340,2013-09-03 22:55:00
7:15 PM,62.6,59.0,88,30.01,10.0,NW,6.9,-,N/A,,Unknown,310,2013-09-03 23:15:00
7:35 PM,62.6,59.0,88,30.01,10.0,NNW,4.6,-,N/A,,Unknown,330,2013-09-03 23:35:00
7:55 PM,60.8,59.0,94,30.02,10.0,West,4.6,-,N/A,,Unknown,280,2013-09-03 23:55:00
8:15 PM,60.8,59.0,94,30.03,10.0,WNW,3.5,-,N/A,,Unknown,290,2013-09-04 00:15:00
8:35 PM,60.8,59.0,94,30.04,10.0,WNW,4.6,-,N/A,,Unknown,300,2013-09-04 00:35:00
8:55 PM,60.8,59.0,94,30.05,10.0,WNW,4.6,-,N/A,,Unknown,290,2013-09-04 00:55:00
9:15 PM,60.8,60.8,100,30.05,10.0,West,6.9,-,N/A,,Unknown,260,2013-09-04 01:15:00
9:35 PM,60.8,59.0,94,30.05,10.0,NW,4.6,-,N/A,,Unknown,310,2013-09-04 01:35:00
9:55 PM,60.8,60.8,100,30.06,10.0,Calm,Calm,-,N/A,,Unknown,0,2013-09-04 01:55:00
10:15 PM,60.8,59.0,94,30.06,10.0,Calm,Calm,-,N/A,,Unknown,0,2013-09-04 02:15:00
10:35 PM,60.8,60.8,100,30.06,10.0,WNW,3.5,-,N/A,,Unknown,300,2013-09-04 02:35:00
10:55 PM,60.8,60.8,100,30.06,10.0,Calm,Calm,-,N/A,,Unknown,0,2013-09-04 02:55:00
11:15 PM,60.8,60.8,100,30.06,10.0,West,4.6,-,N/A,,Unknown,260,2013-09-04 03:15:00
11:35 PM,60.8,60.8,100,30.06,10.0,Calm,Calm,-,N/A,,Unknown,0,2013-09-04 03:35:00
11:55 PM,60.8,60.8,100,30.07,10.0,Calm,Calm,-,N/A,,Unknown,0,2013-09-04 03:55:00